| time (UTC) | temp F | wind direction | speed MPH | gust MPH | rain 1hr in | rain 24hr in | rain mn in | humidity % | barometer mb |
| 20260510200532 | 89 | 342 | 0.0 | 3.0 | 0.00 | 0.00 | 0.00 | 68 | 998.2 |
| 20260510200032 | 90 | 101 | 0.0 | 3.0 | 0.00 | 0.00 | 0.00 | 70 | 998.2 |
| 20260510195532 | 90 | 101 | 1.0 | 3.0 | 0.00 | 0.00 | 0.00 | 70 | 998.3 |
| 20260510195033 | 90 | 107 | 1.0 | 6.0 | 0.00 | 0.00 | 0.00 | 69 | 998.3 |
| 20260510194533 | 90 | 86 | 1.0 | 6.0 | 0.00 | 0.00 | 0.00 | 72 | 998.3 |
| 20260510194033 | 90 | 216 | 1.0 | 3.0 | 0.00 | 0.00 | 0.00 | 69 | 998.3 |
| 20260510193533 | 90 | 181 | 1.0 | 3.0 | 0.00 | 0.00 | 0.00 | 69 | 998.3 |
| 20260510193034 | 90 | 340 | 1.0 | 3.0 | 0.00 | 0.00 | 0.00 | 68 | 998.3 |
| 20260510192532 | 90 | 246 | 0.0 | 2.0 | 0.00 | 0.00 | 0.00 | 71 | 998.3 |
| 20260510192256 | 90 | 109 | 1.0 | 5.0 | 0.00 | 0.00 | 0.00 | 68 | 998.4 |
| 20260510191533 | 90 | 146 | 1.0 | 6.0 | 0.00 | 0.00 | 0.00 | 70 | 998.4 |
| 20260510191032 | 89 | 108 | 1.0 | 7.0 | 0.00 | 0.00 | 0.00 | 70 | 998.3 |
| 20260510190533 | 89 | 250 | 2.0 | 7.0 | 0.00 | 0.00 | 0.00 | 68 | 998.3 |
| 20260510190033 | 89 | 103 | 1.0 | 6.0 | 0.00 | 0.00 | 0.00 | 70 | 998.3 |
| 20260510185533 | 89 | 58 | 1.0 | 3.0 | 0.00 | 0.00 | 0.00 | 70 | 998.2 |
| 20260510185033 | 89 | 202 | 1.0 | 7.0 | 0.00 | 0.00 | 0.00 | 70 | 998.3 |
| 20260510184751 | 89 | 178 | 2.0 | 7.0 | 0.00 | 0.00 | 0.00 | 69 | 998.4 |
| 20260510184033 | 89 | 127 | 2.0 | 7.0 | 0.00 | 0.00 | 0.00 | 68 | 998.4 |
| 20260510183758 | 89 | 214 | 2.0 | 7.0 | 0.00 | 0.00 | 0.00 | 68 | 998.4 |
| 20260510183033 | 89 | 126 | 1.0 | 4.0 | 0.00 | 0.00 | 0.00 | 72 | 998.5 |
| 20260510182533 | 89 | 202 | 2.0 | 7.0 | 0.00 | 0.00 | 0.00 | 70 | 998.6 |
| 20260510182033 | 89 | 61 | 2.0 | 7.0 | 0.00 | 0.00 | 0.00 | 72 | 998.5 |
| 20260510181751 | 89 | 192 | 2.0 | 7.0 | 0.00 | 0.00 | 0.00 | 72 | 998.7 |
| 20260510181033 | 89 | 161 | 2.0 | 7.0 | 0.00 | 0.00 | 0.00 | 70 | 998.7 |
| 20260510180532 | 88 | 0 | 2.0 | 6.0 | 0.00 | 0.00 | 0.00 | 73 | 998.8 |
| 20260510180033 | 88 | 0 | 2.0 | 6.0 | 0.00 | 0.00 | 0.00 | 73 | 998.8 |
| 20260510175532 | 88 | 0 | 1.0 | 6.0 | 0.00 | 0.00 | 0.00 | 74 | 998.8 |
| 20260510175033 | 88 | 0 | 0.0 | 4.0 | 0.00 | 0.00 | 0.00 | 76 | 998.9 |
| 20260510174533 | 88 | 0 | 1.0 | 6.0 | 0.00 | 0.00 | 0.00 | 75 | 999.0 |
| 20260510174256 | 88 | 0 | 1.0 | 6.0 | 0.00 | 0.00 | 0.00 | 74 | 999.0 |
| 20260510173532 | 88 | 0 | 1.0 | 6.0 | 0.00 | 0.00 | 0.00 | 76 | 999.1 |
| 20260510173035 | 88 | 0 | 1.0 | 5.0 | 0.00 | 0.00 | 0.00 | 76 | 999.0 |
| 20260510172535 | 87 | 0 | 1.0 | 3.0 | 0.00 | 0.00 | 0.00 | 75 | 999.2 |
| 20260510172032 | 87 | 0 | 1.0 | 4.0 | 0.00 | 0.00 | 0.00 | 76 | 999.3 |
| 20260510171531 | 87 | 0 | 1.0 | 4.0 | 0.00 | 0.00 | 0.00 | 77 | 999.4 |
| 20260510171028 | 87 | 0 | 1.0 | 5.0 | 0.00 | 0.00 | 0.00 | 76 | 999.5 |
| 20260510170529 | 87 | 0 | 1.0 | 5.0 | 0.00 | 0.00 | 0.00 | 76 | 999.5 |
| 20260510170029 | 87 | 0 | 1.0 | 3.0 | 0.00 | 0.00 | 0.00 | 78 | 999.5 |
| 20260510165751 | 86 | 0 | 1.0 | 3.0 | 0.00 | 0.00 | 0.00 | 80 | 999.6 |
| 20260510165026 | 86 | 0 | 1.0 | 3.0 | 0.00 | 0.00 | 0.00 | 78 | 999.6 |
| 20260510164745 | 86 | 0 | 1.0 | 5.0 | 0.00 | 0.00 | 0.00 | 78 | 999.7 |
| 20260510164248 | 86 | 220 | 1.0 | 5.0 | 0.00 | 0.00 | 0.00 | 78 | 999.8 |
| 20260510163525 | 85 | 190 | 1.0 | 5.0 | 0.00 | 0.00 | 0.00 | 80 | 999.8 |
| 20260510163025 | 85 | 159 | 1.0 | 5.0 | 0.00 | 0.00 | 0.00 | 80 | 999.9 |
| 20260510162524 | 85 | 115 | 1.0 | 4.0 | 0.00 | 0.00 | 0.00 | 81 | 999.9 |
| 20260510162023 | 84 | 151 | 1.0 | 4.0 | 0.00 | 0.00 | 0.00 | 80 | 999.9 |
| 20260510161518 | 84 | 77 | 2.0 | 5.0 | 0.00 | 0.00 | 0.00 | 81 | 999.9 |
| 20260510161018 | 84 | 170 | 1.0 | 5.0 | 0.00 | 0.00 | 0.00 | 83 | 1000.1 |
| 20260510160517 | 84 | 103 | 1.0 | 2.0 | 0.00 | 0.00 | 0.00 | 82 | 1000.1 |
| 20260510160016 | 83 | 119 | 1.0 | 5.0 | 0.00 | 0.00 | 0.00 | 83 | 1000.2 |
| 20260510155743 | 83 | 84 | 1.0 | 6.0 | 0.00 | 0.00 | 0.00 | 82 | 1000.2 |
| 20260510155015 | 83 | 190 | 1.0 | 6.0 | 0.00 | 0.00 | 0.00 | 82 | 1000.3 |
| 20260510154732 | 83 | 192 | 0.0 | 5.0 | 0.00 | 0.00 | 0.00 | 83 | 1000.4 |
| 20260510154013 | 82 | 182 | 0.0 | 3.0 | 0.00 | 0.00 | 0.00 | 85 | 1000.3 |
| 20260510153511 | 82 | 153 | 0.0 | 3.0 | 0.00 | 0.00 | 0.00 | 85 | 1000.3 |
| 20260510153011 | 81 | 0 | 1.0 | 5.0 | 0.00 | 0.00 | 0.00 | 86 | 1000.3 |
| 20260510152509 | 81 | 142 | 1.0 | 6.0 | 0.00 | 0.00 | 0.00 | 85 | 1000.4 |
| 20260510152008 | 81 | 159 | 0.0 | 6.0 | 0.00 | 0.00 | 0.00 | 87 | 1000.3 |
| 20260510151726 | 80 | 174 | 0.0 | 4.0 | 0.00 | 0.00 | 0.00 | 86 | 1000.3 |
| 20260510151009 | 80 | 0 | 0.0 | 2.0 | 0.00 | 0.00 | 0.00 | 88 | 1000.3 |
| 20260510150509 | 80 | 0 | 0.0 | 2.0 | 0.00 | 0.00 | 0.00 | 88 | 1000.4 |
| 20260510150009 | 79 | 0 | 0.0 | 3.0 | 0.00 | 0.00 | 0.00 | 89 | 1000.4 |
| 20260510145508 | 79 | 135 | 0.0 | 3.0 | 0.00 | 0.00 | 0.00 | 91 | 1000.4 |
| 20260510145230 | 79 | 183 | 0.0 | 1.0 | 0.00 | 0.00 | 0.00 | 91 | 1000.5 |
| 20260510144505 | 78 | 0 | 0.0 | 2.0 | 0.00 | 0.00 | 0.00 | 91 | 1000.6 |
| 20260510144006 | 78 | 0 | 0.0 | 2.0 | 0.00 | 0.00 | 0.00 | 92 | 1000.5 |
| 20260510143954 | 78 | 0 | 1.0 | 4.0 | 0.00 | 0.00 | 0.00 | 92 | 1000.6 |
| 20260510143005 | 78 | 67 | 1.0 | 4.0 | 0.00 | 0.00 | 0.00 | 92 | 1000.6 |
| 20260510142505 | 77 | 0 | 1.0 | 4.0 | 0.00 | 0.00 | 0.00 | 93 | 1000.6 |
| 20260510142231 | 77 | 0 | 0.0 | 4.0 | 0.00 | 0.00 | 0.00 | 93 | 1000.7 |
| 20260510141503 | 77 | 0 | 1.0 | 4.0 | 0.00 | 0.00 | 0.00 | 94 | 1000.7 |
| 20260510141445 | 76 | 0 | 1.0 | 4.0 | 0.00 | 0.00 | 0.00 | 95 | 1000.7 |
| 20260510140458 | 76 | 113 | 0.0 | 2.0 | 0.00 | 0.00 | 0.00 | 95 | 1000.7 |
| 20260510135956 | 76 | 0 | 0.0 | 2.0 | 0.00 | 0.00 | 0.00 | 96 | 1000.8 |
| 20260510135456 | 75 | 101 | 0.0 | 2.0 | 0.00 | 0.00 | 0.00 | 96 | 1000.7 |
| 20260510134956 | 75 | 313 | 0.0 | 1.0 | 0.00 | 0.00 | 0.00 | 96 | 1000.7 |
| 20260510134456 | 75 | 27 | 0.0 | 2.0 | 0.00 | 0.00 | 0.00 | 96 | 1000.6 |
| 20260510133956 | 74 | 14 | 0.0 | 2.0 | 0.00 | 0.00 | 0.00 | 96 | 1000.5 |
| 20260510133453 | 74 | 344 | 0.0 | 2.0 | 0.00 | 0.00 | 0.00 | 96 | 1000.5 |
| 20260510132948 | 74 | 34 | 0.0 | 2.0 | 0.00 | 0.00 | 0.00 | 96 | 1000.5 |
| 20260510132448 | 74 | 41 | 0.0 | 2.0 | 0.00 | 0.00 | 0.00 | 96 | 1000.5 |
| 20260510131946 | 74 | 0 | 0.0 | 2.0 | 0.00 | 0.00 | 0.00 | 96 | 1000.3 |
| 20260510131446 | 74 | 288 | 0.0 | 1.0 | 0.00 | 0.00 | 0.00 | 96 | 1000.2 |
| 20260510131206 | 74 | 305 | 0.0 | 1.0 | 0.00 | 0.00 | 0.00 | 96 | 1000.1 |
| 20260510130446 | 73 | 298 | 0.0 | 1.0 | 0.00 | 0.00 | 0.00 | 97 | 999.9 |
| 20260510125946 | 73 | 300 | 0.0 | 0.0 | 0.00 | 0.00 | 0.00 | 96 | 999.8 |
| 20260510125708 | 73 | 301 | 0.0 | 0.0 | 0.00 | 0.00 | 0.00 | 96 | 999.6 |
| 20260510125452 | 73 | 301 | 0.0 | 0.0 | 0.00 | 0.00 | 0.00 | 96 | 999.6 |
| 20260510124943 | 72 | 302 | 0.0 | 0.0 | 0.00 | 0.00 | 0.00 | 96 | 999.5 |
| 20260510124443 | 72 | 302 | 0.0 | 0.0 | 0.00 | 0.00 | 0.00 | 96 | 999.5 |
| 20260510124206 | 72 | 302 | 0.0 | 0.0 | 0.00 | 0.00 | 0.00 | 96 | 999.4 |
| 20260510123946 | 72 | 302 | 0.0 | 0.0 | 0.00 | 0.00 | 0.00 | 96 | 999.4 |
| 20260510123443 | 72 | 302 | 0.0 | 0.0 | 0.00 | 0.00 | 0.00 | 96 | 999.3 |
| 20260510122943 | 72 | 303 | 0.0 | 0.0 | 0.00 | 0.00 | 0.00 | 96 | 999.2 |
| 20260510122442 | 72 | 303 | 0.0 | 0.0 | 0.00 | 0.00 | 0.00 | 96 | 999.1 |
| 20260510122217 | 72 | 303 | 0.0 | 0.0 | 0.00 | 0.00 | 0.00 | 96 | 999.1 |
| 20260510121443 | 71 | 304 | 0.0 | 0.0 | 0.00 | 0.00 | 0.00 | 96 | 999.0 |
| 20260510120941 | 71 | 304 | 0.0 | 0.0 | 0.00 | 0.00 | 0.00 | 96 | 998.9 |
| 20260510120704 | 71 | 304 | 0.0 | 0.0 | 0.00 | 0.00 | 0.00 | 96 | 998.9 |
| 20260510115942 | 71 | 304 | 0.0 | 0.0 | 0.00 | 0.00 | 0.00 | 96 | 998.7 |
| 20260510115442 | 71 | 331 | 0.0 | 0.0 | 0.00 | 0.00 | 0.00 | 96 | 998.7 |
| 20260510115200 | 71 | 331 | 0.0 | 0.0 | 0.00 | 0.00 | 0.00 | 95 | 998.6 |
| 20260510114442 | 71 | 331 | 0.0 | 0.0 | 0.00 | 0.00 | 0.00 | 95 | 998.4 |
| 20260510113943 | 71 | 331 | 0.0 | 0.0 | 0.00 | 0.00 | 0.00 | 95 | 998.2 |
| 20260510113442 | 71 | 331 | 0.0 | 0.0 | 0.00 | 0.00 | 0.00 | 95 | 998.2 |
| 20260510112942 | 71 | 331 | 0.0 | 3.0 | 0.00 | 0.00 | 0.00 | 95 | 998.1 |
| 20260510112439 | 71 | 325 | 0.0 | 3.0 | 0.00 | 0.00 | 0.00 | 96 | 998.1 |
| 20260510111934 | 71 | 28 | 0.0 | 1.0 | 0.00 | 0.00 | 0.00 | 96 | 998.0 |
| 20260510111435 | 71 | 74 | 0.0 | 0.0 | 0.00 | 0.00 | 0.00 | 96 | 997.7 |
| 20260510110934 | 71 | 73 | 0.0 | 0.0 | 0.00 | 0.00 | 0.00 | 96 | 997.6 |
| 20260510110433 | 71 | 73 | 0.0 | 0.0 | 0.00 | 0.00 | 0.00 | 96 | 997.4 |
| 20260510105934 | 71 | 73 | 0.0 | 0.0 | 0.00 | 0.00 | 0.00 | 96 | 997.2 |
| 20260510105434 | 71 | 73 | 0.0 | 0.0 | 0.00 | 0.00 | 0.00 | 95 | 997.3 |
| 20260510104934 | 71 | 74 | 0.0 | 0.0 | 0.00 | 0.00 | 0.00 | 95 | 997.2 |
| 20260510104434 | 71 | 74 | 0.0 | 0.0 | 0.00 | 0.00 | 0.00 | 95 | 997.1 |
| 20260510103934 | 70 | 74 | 0.0 | 0.0 | 0.00 | 0.00 | 0.00 | 95 | 997.0 |
| 20260510103430 | 70 | 74 | 0.0 | 0.0 | 0.00 | 0.00 | 0.00 | 95 | 996.9 |
| 20260510102929 | 70 | 74 | 0.0 | 0.0 | 0.00 | 0.00 | 0.00 | 95 | 996.9 |
| 20260510102430 | 70 | 74 | 0.0 | 0.0 | 0.00 | 0.00 | 0.00 | 95 | 996.8 |
| 20260510101931 | 70 | 76 | 0.0 | 0.0 | 0.00 | 0.00 | 0.00 | 95 | 996.8 |
| 20260510101648 | 70 | 74 | 0.0 | 0.0 | 0.00 | 0.00 | 0.00 | 95 | 996.8 |
| 20260510100931 | 69 | 74 | 0.0 | 0.0 | 0.00 | 0.00 | 0.00 | 95 | 996.8 |
| 20260510100431 | 69 | 74 | 0.0 | 0.0 | 0.00 | 0.00 | 0.00 | 94 | 996.7 |
| 20260510095931 | 69 | 74 | 0.0 | 0.0 | 0.00 | 0.00 | 0.00 | 94 | 996.6 |
| 20260510095432 | 69 | 74 | 0.0 | 0.0 | 0.00 | 0.00 | 0.00 | 94 | 996.7 |
| 20260510094926 | 69 | 74 | 0.0 | 0.0 | 0.00 | 0.00 | 0.00 | 94 | 996.6 |
| 20260510094644 | 69 | 74 | 0.0 | 0.0 | 0.00 | 0.00 | 0.00 | 94 | 996.6 |
| 20260510094142 | 69 | 76 | 0.0 | 0.0 | 0.00 | 0.00 | 0.00 | 93 | 996.6 |
| 20260510093420 | 69 | 76 | 0.0 | 0.0 | 0.00 | 0.00 | 0.00 | 93 | 996.5 |
| 20260510092920 | 69 | 76 | 0.0 | 0.0 | 0.00 | 0.00 | 0.00 | 93 | 996.4 |
| 20260510092420 | 69 | 75 | 0.0 | 0.0 | 0.00 | 0.00 | 0.00 | 93 | 996.5 |
| 20260510091920 | 69 | 75 | 0.0 | 0.0 | 0.00 | 0.00 | 0.00 | 93 | 996.4 |
| 20260510091417 | 69 | 75 | 0.0 | 0.0 | 0.00 | 0.00 | 0.00 | 93 | 996.3 |
| 20260510090912 | 69 | 74 | 0.0 | 0.0 | 0.00 | 0.00 | 0.00 | 93 | 996.2 |
| 20260510090412 | 69 | 74 | 0.0 | 0.0 | 0.00 | 0.00 | 0.00 | 93 | 996.2 |
| 20260510085913 | 69 | 75 | 0.0 | 0.0 | 0.00 | 0.00 | 0.00 | 93 | 996.3 |
| 20260510085412 | 69 | 76 | 0.0 | 0.0 | 0.00 | 0.00 | 0.00 | 93 | 996.3 |
| 20260510084912 | 69 | 75 | 0.0 | 0.0 | 0.00 | 0.00 | 0.00 | 93 | 996.3 |
| 20260510084412 | 69 | 74 | 0.0 | 0.0 | 0.00 | 0.00 | 0.00 | 93 | 996.4 |
| 20260510083911 | 69 | 75 | 0.0 | 0.0 | 0.00 | 0.00 | 0.00 | 93 | 996.3 |
| 20260510083412 | 70 | 77 | 0.0 | 0.0 | 0.00 | 0.00 | 0.00 | 93 | 996.3 |
| 20260510082911 | 70 | 76 | 0.0 | 0.0 | 0.00 | 0.00 | 0.00 | 93 | 996.4 |
| 20260510082411 | 70 | 76 | 0.0 | 0.0 | 0.00 | 0.00 | 0.00 | 93 | 996.3 |
| 20260510081912 | 70 | 75 | 0.0 | 0.0 | 0.00 | 0.00 | 0.00 | 92 | 996.5 |
| 20260510081413 | 70 | 76 | 0.0 | 0.0 | 0.00 | 0.00 | 0.00 | 92 | 996.5 |
| 20260510081136 | 70 | 74 | 0.0 | 0.0 | 0.00 | 0.00 | 0.00 | 92 | 996.5 |
| 20260510080412 | 70 | 75 | 0.0 | 0.0 | 0.00 | 0.00 | 0.00 | 92 | 996.5 |
| 20260510075912 | 70 | 76 | 0.0 | 0.0 | 0.00 | 0.00 | 0.00 | 92 | 996.6 |
| 20260510075412 | 70 | 75 | 0.0 | 0.0 | 0.00 | 0.00 | 0.00 | 92 | 996.6 |
| 20260510075130 | 70 | 76 | 0.0 | 0.0 | 0.00 | 0.00 | 0.00 | 92 | 996.5 |
| 20260510074409 | 70 | 75 | 0.0 | 0.0 | 0.00 | 0.00 | 0.00 | 92 | 996.5 |
| 20260510073905 | 70 | 74 | 0.0 | 0.0 | 0.00 | 0.00 | 0.00 | 92 | 996.5 |
| 20260510073404 | 70 | 76 | 0.0 | 0.0 | 0.00 | 0.00 | 0.00 | 92 | 996.5 |
| 20260510072904 | 71 | 75 | 0.0 | 0.0 | 0.00 | 0.00 | 0.00 | 92 | 996.5 |
| 20260510072404 | 71 | 74 | 0.0 | 0.0 | 0.00 | 0.00 | 0.00 | 91 | 996.4 |
| 20260510071903 | 71 | 76 | 0.0 | 0.0 | 0.00 | 0.00 | 0.00 | 91 | 996.5 |
| 20260510071404 | 71 | 76 | 0.0 | 0.0 | 0.00 | 0.00 | 0.00 | 91 | 996.5 |
| 20260510070902 | 71 | 74 | 0.0 | 0.0 | 0.00 | 0.00 | 0.00 | 91 | 996.5 |
| 20260510070401 | 71 | 77 | 0.0 | 0.0 | 0.00 | 0.00 | 0.00 | 91 | 996.5 |
| 20260510065900 | 71 | 76 | 0.0 | 0.0 | 0.00 | 0.00 | 0.00 | 91 | 996.6 |
| 20260510065400 | 71 | 76 | 0.0 | 0.0 | 0.00 | 0.00 | 0.00 | 90 | 996.7 |
| 20260510064856 | 71 | 75 | 0.0 | 0.0 | 0.00 | 0.00 | 0.00 | 90 | 996.8 |
| 20260510064354 | 71 | 74 | 0.0 | 0.0 | 0.00 | 0.00 | 0.00 | 90 | 996.8 |
| 20260510063853 | 71 | 76 | 0.0 | 0.0 | 0.00 | 0.00 | 0.00 | 90 | 996.8 |
| 20260510063353 | 71 | 75 | 0.0 | 0.0 | 0.00 | 0.00 | 0.00 | 90 | 996.9 |
| 20260510063113 | 71 | 75 | 0.0 | 0.0 | 0.00 | 0.00 | 0.00 | 90 | 996.8 |
| 20260510062349 | 71 | 74 | 0.0 | 0.0 | 0.00 | 0.00 | 0.00 | 90 | 996.9 |
| 20260510062328 | 71 | 76 | 0.0 | 0.0 | 0.00 | 0.00 | 0.00 | 89 | 997.1 |
| 20260510061346 | 72 | 75 | 0.0 | 0.0 | 0.00 | 0.00 | 0.00 | 89 | 997.1 |
| 20260510060845 | 72 | 75 | 0.0 | 0.0 | 0.00 | 0.00 | 0.00 | 89 | 997.1 |
| 20260510060345 | 72 | 75 | 0.0 | 0.0 | 0.00 | 0.00 | 0.00 | 89 | 997.1 |
| 20260510055843 | 72 | 74 | 0.0 | 0.0 | 0.00 | 0.00 | 0.00 | 88 | 997.0 |
| 20260510055558 | 72 | 76 | 0.0 | 0.0 | 0.00 | 0.00 | 0.00 | 88 | 996.9 |
| 20260510054836 | 72 | 75 | 0.0 | 0.0 | 0.00 | 0.00 | 0.00 | 87 | 996.9 |
| 20260510054334 | 73 | 74 | 0.0 | 0.0 | 0.00 | 0.00 | 0.00 | 87 | 997.0 |
| 20260510054100 | 73 | 77 | 0.0 | 0.0 | 0.00 | 0.00 | 0.00 | 87 | 997.0 |
| 20260510053331 | 73 | 76 | 0.0 | 0.0 | 0.00 | 0.00 | 0.00 | 87 | 997.1 |
| 20260510052830 | 73 | 76 | 0.0 | 0.0 | 0.00 | 0.00 | 0.00 | 87 | 997.1 |
| 20260510052330 | 73 | 76 | 0.0 | 0.0 | 0.00 | 0.00 | 0.00 | 86 | 997.1 |
| 20260510052054 | 73 | 75 | 0.0 | 0.0 | 0.00 | 0.00 | 0.00 | 86 | 997.1 |
| 20260510051331 | 74 | 75 | 0.0 | 0.0 | 0.00 | 0.00 | 0.00 | 86 | 997.1 |
| 20260510050827 | 74 | 75 | 0.0 | 1.0 | 0.00 | 0.00 | 0.00 | 85 | 997.1 |
| 20260510050329 | 74 | 76 | 0.0 | 3.0 | 0.00 | 0.00 | 0.00 | 85 | 997.1 |
| 20260510045825 | 74 | 74 | 0.0 | 3.0 | 0.00 | 0.00 | 0.00 | 85 | 997.0 |
| 20260510045325 | 74 | 30 | 0.0 | 1.0 | 0.00 | 0.00 | 0.00 | 84 | 997.1 |
| 20260510044824 | 75 | 78 | 0.0 | 0.0 | 0.00 | 0.00 | 0.00 | 84 | 997.1 |
| 20260510044324 | 75 | 0 | 0.0 | 0.0 | 0.00 | 0.00 | 0.00 | 84 | 997.1 |
| 20260510043824 | 75 | 0 | 0.0 | 1.0 | 0.00 | 0.00 | 0.00 | 84 | 997.1 |
| 20260510043324 | 75 | 0 | 0.0 | 1.0 | 0.00 | 0.00 | 0.00 | 83 | 997.1 |
| 20260510042824 | 75 | 77 | 0.0 | 1.0 | 0.00 | 0.00 | 0.00 | 83 | 997.1 |
| 20260510042326 | 76 | 77 | 0.0 | 1.0 | 0.00 | 0.00 | 0.00 | 83 | 997.3 |
| 20260510042048 | 76 | 81 | 0.0 | 2.0 | 0.00 | 0.00 | 0.00 | 83 | 997.3 |
| 20260510041319 | 76 | 75 | 1.0 | 3.0 | 0.00 | 0.00 | 0.00 | 82 | 997.3 |
| 20260510041038 | 76 | 188 | 1.0 | 3.0 | 0.00 | 0.00 | 0.00 | 82 | 997.1 |
| 20260510040321 | 76 | 190 | 1.0 | 3.0 | 0.00 | 0.00 | 0.00 | 81 | 997.0 |
| 20260510035820 | 76 | 178 | 0.0 | 3.0 | 0.00 | 0.00 | 0.00 | 81 | 997.1 |
| 20260510035321 | 76 | 67 | 0.0 | 2.0 | 0.00 | 0.00 | 0.00 | 81 | 997.1 |
| 20260510034820 | 76 | 162 | 1.0 | 5.0 | 0.00 | 0.00 | 0.00 | 81 | 997.1 |
| 20260510034320 | 76 | 254 | 2.0 | 6.0 | 0.00 | 0.00 | 0.00 | 80 | 997.2 |
| 20260510033821 | 76 | 188 | 1.0 | 7.0 | 0.00 | 0.00 | 0.00 | 80 | 997.1 |
| 20260510033321 | 77 | 193 | 1.0 | 7.0 | 0.00 | 0.00 | 0.00 | 80 | 997.2 |
| 20260510032816 | 77 | 207 | 1.0 | 4.0 | 0.00 | 0.00 | 0.00 | 80 | 997.1 |
| 20260510032317 | 77 | 201 | 1.0 | 3.0 | 0.00 | 0.00 | 0.00 | 80 | 997.1 |
| 20260510031816 | 77 | 159 | 1.0 | 8.0 | 0.00 | 0.00 | 0.00 | 80 | 997.3 |
| 20260510031317 | 77 | 167 | 1.0 | 8.0 | 0.00 | 0.00 | 0.00 | 80 | 997.3 |
| 20260510030816 | 78 | 124 | 1.0 | 3.0 | 0.00 | 0.00 | 0.00 | 80 | 997.4 |
| 20260510030316 | 78 | 106 | 1.0 | 4.0 | 0.00 | 0.00 | 0.00 | 80 | 997.4 |
| 20260510025816 | 78 | 114 | 1.0 | 6.0 | 0.00 | 0.00 | 0.00 | 81 | 997.2 |
| 20260510025538 | 78 | 0 | 1.0 | 6.0 | 0.00 | 0.00 | 0.00 | 80 | 997.0 |
| 20260510024817 | 77 | 0 | 1.0 | 4.0 | 0.00 | 0.00 | 0.00 | 79 | 996.9 |
| 20260510024539 | 77 | 0 | 1.0 | 3.0 | 0.00 | 0.00 | 0.00 | 78 | 996.8 |
| 20260510024041 | 78 | 0 | 0.0 | 0.0 | 0.00 | 0.00 | 0.00 | 79 | 996.4 |
| 20260510023317 | 78 | 0 | 0.0 | 0.0 | 0.00 | 0.00 | 0.00 | 79 | 996.1 |
| 20260510022815 | 78 | 0 | 0.0 | 0.0 | 0.00 | 0.00 | 0.00 | 79 | 995.9 |
| 20260510022316 | 78 | 0 | 0.0 | 0.0 | 0.00 | 0.00 | 0.00 | 78 | 995.6 |
| 20260510021816 | 79 | 0 | 0.0 | 0.0 | 0.00 | 0.00 | 0.00 | 77 | 995.5 |
| 20260510021315 | 79 | 0 | 0.0 | 0.0 | 0.00 | 0.00 | 0.00 | 77 | 995.3 |
| 20260510021306 | 80 | 0 | 0.0 | 0.0 | 0.00 | 0.00 | 0.00 | 76 | 995.2 |
| 20260510020538 | 80 | 0 | 0.0 | 0.0 | 0.00 | 0.00 | 0.00 | 76 | 995.1 |
| 20260510020038 | 80 | 0 | 0.0 | 2.0 | 0.00 | 0.00 | 0.00 | 76 | 995.1 |
| 20260510015316 | 81 | 0 | 0.0 | 2.0 | 0.00 | 0.00 | 0.00 | 75 | 995.0 |
| 20260510014817 | 81 | 0 | 1.0 | 3.0 | 0.00 | 0.00 | 0.00 | 76 | 994.9 |
| 20260510014541 | 81 | 0 | 0.0 | 3.0 | 0.00 | 0.00 | 0.00 | 75 | 994.9 |
| 20260510013816 | 82 | 0 | 1.0 | 6.0 | 0.00 | 0.00 | 0.00 | 76 | 994.9 |
| 20260510013317 | 82 | 0 | 1.0 | 6.0 | 0.00 | 0.00 | 0.00 | 75 | 994.9 |
| 20260510012816 | 82 | 0 | 2.0 | 8.0 | 0.00 | 0.00 | 0.00 | 78 | 994.8 |
| 20260510011816 | 83 | 241 | 1.0 | 11.0 | 0.00 | 0.00 | 0.00 | 81 | 994.7 |
| 20260510011538 | 83 | 67 | 0.0 | 1.0 | 0.00 | 0.00 | 0.00 | 84 | 994.5 |
| 20260510010816 | 83 | 67 | 0.0 | 1.0 | 0.00 | 0.00 | 0.00 | 85 | 994.4 |
| 20260510010533 | 83 | 332 | 0.0 | 0.0 | 0.00 | 0.00 | 0.00 | 85 | 994.2 |
| 20260510005816 | 84 | 332 | 0.0 | 0.0 | 0.00 | 0.00 | 0.00 | 85 | 994.1 |
| 20260510005534 | 84 | 332 | 0.0 | 0.0 | 0.00 | 0.00 | 0.00 | 86 | 994.0 |
| 20260510004816 | 84 | 332 | 0.0 | 0.0 | 0.00 | 0.00 | 0.00 | 86 | 993.9 |
| 20260510004316 | 84 | 329 | 0.0 | 0.0 | 0.00 | 0.00 | 0.00 | 86 | 993.8 |
| 20260510003816 | 84 | 331 | 0.0 | 0.0 | 0.00 | 0.00 | 0.00 | 85 | 993.8 |
| 20260510003314 | 84 | 0 | 0.0 | 0.0 | 0.00 | 0.00 | 0.00 | 85 | 993.9 |
| 20260510002814 | 84 | 0 | 0.0 | 0.0 | 0.00 | 0.00 | 0.00 | 85 | 994.0 |
| 20260510002313 | 84 | 0 | 0.0 | 0.0 | 0.00 | 0.00 | 0.00 | 84 | 994.0 |
| 20260510001811 | 84 | 0 | 0.0 | 0.0 | 0.00 | 0.00 | 0.00 | 84 | 993.8 |
| 20260510001312 | 84 | 332 | 0.0 | 0.0 | 0.00 | 0.00 | 0.00 | 83 | 993.7 |
| 20260510000812 | 84 | 333 | 0.0 | 0.0 | 0.00 | 0.00 | 0.00 | 83 | 993.6 |
| 20260510000757 | 84 | 333 | 0.0 | 0.0 | 0.00 | 0.00 | 0.00 | 82 | 993.6 |
| 20260510000029 | 85 | 333 | 0.0 | 0.0 | 0.00 | 0.00 | 0.00 | 82 | 993.6 |
| 20260509235306 | 85 | 333 | 0.0 | 0.0 | 0.00 | 0.00 | 0.00 | 82 | 993.6 |
| 20260509234805 | 85 | 333 | 0.0 | 0.0 | 0.00 | 0.00 | 0.00 | 82 | 993.6 |
| 20260509234304 | 85 | 333 | 0.0 | 0.0 | 0.00 | 0.00 | 0.00 | 81 | 993.7 |
| 20260509233800 | 85 | 333 | 0.0 | 0.0 | 0.00 | 0.00 | 0.00 | 81 | 993.6 |
| 20260509233258 | 85 | 333 | 0.0 | 0.0 | 0.00 | 0.00 | 0.00 | 81 | 993.7 |
| 20260509232758 | 85 | 333 | 0.0 | 0.0 | 0.00 | 0.00 | 0.00 | 80 | 993.7 |
| 20260509232256 | 85 | 333 | 0.0 | 0.0 | 0.00 | 0.00 | 0.00 | 80 | 993.7 |
| 20260509232017 | 85 | 333 | 0.0 | 0.0 | 0.00 | 0.00 | 0.00 | 79 | 993.6 |
| 20260509231250 | 86 | 333 | 0.0 | 0.0 | 0.00 | 0.00 | 0.00 | 79 | 993.7 |
| 20260509230747 | 86 | 332 | 0.0 | 0.0 | 0.00 | 0.00 | 0.00 | 78 | 993.6 |
| 20260509230244 | 86 | 333 | 0.0 | 0.0 | 0.00 | 0.00 | 0.00 | 78 | 993.6 |
| 20260509225744 | 86 | 332 | 0.0 | 0.0 | 0.00 | 0.00 | 0.00 | 78 | 993.4 |
| 20260509225510 | 87 | 331 | 0.0 | 0.0 | 0.00 | 0.00 | 0.00 | 77 | 993.4 |
| 20260509224740 | 87 | 331 | 0.0 | 0.0 | 0.00 | 0.00 | 0.00 | 76 | 993.4 |
| 20260509224459 | 87 | 331 | 0.0 | 0.0 | 0.00 | 0.00 | 0.00 | 75 | 993.5 |
| 20260509223727 | 87 | 0 | 0.0 | 0.0 | 0.00 | 0.00 | 0.00 | 75 | 993.4 |
| 20260509223500 | 88 | 0 | 0.0 | 0.0 | 0.00 | 0.00 | 0.00 | 74 | 993.3 |
| 20260509222953 | 88 | 0 | 0.0 | 2.0 | 0.00 | 0.00 | 0.00 | 74 | 993.4 |
| 20260509222227 | 88 | 332 | 1.0 | 3.0 | 0.00 | 0.00 | 0.00 | 74 | 993.2 |
| 20260509221728 | 88 | 341 | 1.0 | 3.0 | 0.00 | 0.00 | 0.00 | 74 | 993.2 |
| 20260509221452 | 88 | 53 | 0.0 | 2.0 | 0.00 | 0.00 | 0.00 | 74 | 993.2 |
| 20260509220725 | 88 | 52 | 0.0 | 2.0 | 0.00 | 0.00 | 0.00 | 75 | 993.2 |
| 20260509220223 | 88 | 9 | 0.0 | 2.0 | 0.00 | 0.00 | 0.00 | 75 | 993.3 |
| 20260509215809 | 88 | 207 | 0.0 | 0.0 | 0.00 | 0.00 | 0.00 | 73 | 993.3 |
| 20260509214939 | 88 | 157 | 0.0 | 0.0 | 0.00 | 0.00 | 0.00 | 74 | 993.3 |
| 20260509214308 | 88 | 180 | 0.0 | 0.0 | 0.00 | 0.00 | 0.00 | 73 | 993.3 |
| 20260509213213 | 88 | 135 | 0.0 | 0.0 | 0.00 | 0.00 | 0.00 | 71 | 993.3 |
| 20260509212714 | 89 | 135 | 0.0 | 0.0 | 0.00 | 0.00 | 0.00 | 73 | 993.3 |
| 20260509212437 | 89 | 135 | 0.0 | 0.0 | 0.00 | 0.00 | 0.00 | 73 | 993.3 |
| 20260509211714 | 89 | 48 | 0.0 | 2.0 | 0.00 | 0.00 | 0.00 | 72 | 993.3 |
| 20260509211215 | 88 | 120 | 0.0 | 2.0 | 0.00 | 0.00 | 0.00 | 73 | 993.4 |
| 20260509210713 | 88 | 20 | 0.0 | 4.0 | 0.00 | 0.00 | 0.00 | 72 | 993.5 |
| 20260509210213 | 89 | 49 | 1.0 | 5.0 | 0.00 | 0.00 | 0.00 | 72 | 993.5 |
| 20260509205709 | 89 | 31 | 1.0 | 5.0 | 0.00 | 0.00 | 0.00 | 72 | 993.6 |
| 20260509205211 | 88 | 332 | 0.0 | 4.0 | 0.00 | 0.00 | 0.00 | 73 | 993.6 |
| 20260509204710 | 88 | 123 | 1.0 | 4.0 | 0.00 | 0.00 | 0.00 | 73 | 993.7 |
| 20260509204208 | 88 | 290 | 0.0 | 2.0 | 0.00 | 0.00 | 0.00 | 73 | 993.8 |
| 20260509203710 | 88 | 183 | 0.0 | 1.0 | 0.00 | 0.00 | 0.00 | 75 | 993.9 |
| 20260509203209 | 88 | 183 | 0.0 | 4.0 | 0.00 | 0.00 | 0.00 | 73 | 993.9 |
| 20260509202711 | 88 | 126 | 0.0 | 4.0 | 0.00 | 0.00 | 0.00 | 74 | 993.9 |
| 20260509202209 | 88 | 185 | 1.0 | 4.0 | 0.00 | 0.00 | 0.00 | 74 | 994.0 |
| 20260509201709 | 87 | 201 | 1.0 | 4.0 | 0.00 | 0.00 | 0.00 | 73 | 994.0 |
| 20260509201434 | 88 | 200 | 1.0 | 4.0 | 0.00 | 0.00 | 0.00 | 73 | 994.0 |